DB0BGL Weather Reports


Display with metric or nautical units.
time (UTC)temp
F
wind
direction
speed
MPH
gust
MPH
rain 1hr
in
rain 24hr
in
rain mn
in
humidity
%
barometer
mb
20210301141228 57 36 0.0 0.0 0.00 0.00 0.00 25
20210301140222 58 36 0.0 0.0 0.00 0.00 0.00 23
20210301135314 56 36 0.0 0.0 0.00 0.00 0.00 24
20210301134429 54 36 0.0 0.0 0.00 0.00 0.00 25
20210301133221 52 36 0.0 0.0 0.00 0.00 0.00 26
20210301132220 51 36 0.0 0.0 0.00 0.00 0.00 27
20210301131229 48 36 0.0 0.0 0.00 0.00 0.00 27
20210301130228 48 36 0.0 0.0 0.00 0.00 0.00 28
20210301125341 48 36 0.0 0.0 0.00 0.00 0.00 27
20210301124220 48 36 50.0 0.0 0.00 0.00 0.00 26
20210301124218 48 36 0.0 0.0 0.00 0.00 0.00 26
20210301123227 49 36 0.0 0.0 0.00 0.00 0.00 25
20210301122219 49 36 0.0 0.0 0.00 0.00 0.00 23
20210301121222 48 36 0.0 0.0 0.00 0.00 0.00 24
20210301120249 49 36 0.0 0.0 0.00 0.00 0.00 26
20210301114214 49 36 0.0 0.0 0.00 0.00 0.00 30
20210301113237 49 36 0.0 0.0 0.00 0.00 0.00 34
20210301112231 48 36 0.0 0.0 0.00 0.00 0.00 34
20210301111213 49 36 0.0 0.0 0.00 0.00 0.00 36
20210301110214 47 36 0.0 0.0 0.00 0.00 0.00 36
20210301105348 47 36 0.0 0.0 0.00 0.00 0.00 37
20210301104210 47 36 0.0 0.0 0.00 0.00 0.00 39
20210301103210 46 36 0.0 0.0 0.00 0.00 0.00 36
20210301102209 45 36 0.0 0.0 0.00 0.00 0.00 36
20210301101209 45 36 0.0 0.0 0.00 0.00 0.00 35
20210301100208 46 36 0.0 0.0 0.00 0.00 0.00 34
20210301095208 47 36 0.0 0.0 0.00 0.00 0.00 33
20210301094207 47 36 0.0 0.0 0.00 0.00 0.00 33
20210301093206 47 36 0.0 0.0 0.00 0.00 0.00 34
20210301092206 47 36 0.0 0.0 0.00 0.00 0.00 34
20210301091205 46 36 0.0 0.0 0.00 0.00 0.00 33
20210301090209 46 36 0.0 0.0 0.00 0.00 0.00 34
20210301085205 45 36 0.0 0.0 0.00 0.00 0.00 37
20210301084204 46 36 0.0 0.0 0.00 0.00 0.00 36
20210301083205 47 36 0.0 0.0 0.00 0.00 0.00 33
20210301082209 47 36 0.0 0.0 0.00 0.00 0.00 32
20210301080206 49 36 0.0 0.0 0.00 0.00 0.00 30
20210301075201 48 36 0.0 0.0 0.00 0.00 0.00 30
20210301074202 46 36 0.0 0.0 0.00 0.00 0.00 31
20210301073203 45 36 0.0 0.0 0.00 0.00 0.00 31
20210301072159 45 36 0.0 0.0 0.00 0.00 0.00 29
20210301071203 43 36 0.0 0.0 0.00 0.00 0.00 38
20210301070158 40 36 0.0 0.0 0.00 0.00 0.00 38
20210301065157 37 36 0.0 0.0 0.00 0.00 0.00 40
20210301064202 36 36 0.0 0.0 0.00 0.00 0.00 40
20210301063158 35 74 0.0 3.0 0.00 0.00 0.00 40
20210301062158 34 9 0.0 0.0 0.00 0.00 0.00 37
20210301061155 33 9 0.0 5.0 0.00 0.00 0.00 36